Location: ???????
(55.3754°N, 39.3545°E)
Time: 21:46:24
(UTC+00:00)

Cosmos 1741 Rocket - Pass Details

Date: 14 April 2026
Orbit: 756 x 778 km, 74.0° (Epoch: 13 May)

Event Time Altitude Azimuth Distance (km) Brightness Sun altitude
Rises 22:21:08 0° 331° (NNW) 3,262 7.9 -23.8°
Reaches altitude 10° 22:23:31 10° 331° (NNW) 2,333 7.1 -23.7°
Maximum altitude 22:28:49 82° 246° (WSW) 792 3.9 -23.5°
Enters shadow 22:29:52 59° 168° (SSE) 901 4.0 -23.5°
